Flag for Equatorial Guinea Weather past 2 weeks in Malabo, Equatorial Guinea

Now
77 °F

Thunderstorms. Passing clouds.


Feels Like: 78 °F
Forecast: 75 / 82 °F
Wind: 6 mph from Southwest

Location: Malabo/Fernando Poo

Current Time: Oct 20, 2014 at 7:22:39 PM

Latest Report: Oct 20, 2014 at 7:00 PM


Visibility: N/A

Pressure: 29.89 "Hg

Humidity: 94%

Dew point: 75 °F

Location of MalaboLocation

Historic Weather in Malabo — Graph

°F

Malabo temperature yesterday

Maximum temperature yesterday: 82 °F (at 1:00 PM)
Minimum temperature yesterday: 73 °F (at 4:00 AM)
Average temperature yesterday: 78 °F

Past Weeks' High & Low Weather Summary

 TemperatureHumidityPressure
High88 °F (Oct 7, 2:00 PM)100% (Oct 6, 7:00 AM)30.01 "Hg (Oct 6, 7:00 AM)
Low70 °F (Oct 13, 5:00 AM)55% (Oct 7, 2:00 PM)29.80 "Hg (Oct 8, 4:00 PM)
Average78 °F87%29.90 "Hg
* Reported Oct 5 6:00 PM — Oct 20 6:00 PM, Malabo, Weather by CustomWeather, © 2014

Note: Actual official high and low records may vary slightly from our data, if they occured in-between our weather recording intervals... More about our weather records

Advertising

Malabo weather history for previous 24 hours

 ConditionsComfort  
Time TempWeatherWind HumidityBarometerVisibility
6:00 PM
Oct 20
79 °FScattered clouds.8 mph84%29.83 "HgN/A
5:00 PM81 °FPassing clouds.8 mph84%29.83 "HgN/A
4:00 PM82 °FScattered clouds.12 mph79%29.83 "HgN/A
3:00 PM82 °FScattered clouds.13 mph79%29.83 "HgN/A
1:00 PM84 °FThunderstorms. Broken clouds.10 mph74%29.89 "HgN/A
12:00 PM82 °FThunderstorms. Broken clouds.9 mph79%29.92 "HgN/A
11:00 AM82 °FScattered clouds.8 mph79%29.95 "HgN/A
10:00 AM84 °FScattered clouds.6 mph74%29.95 "HgN/A
9:00 AM82 °FPassing clouds.No wind70%29.95 "HgN/A
8:00 AM77 °FScattered clouds.No wind83%29.95 "HgN/A
7:00 AM73 °FScattered clouds.No wind100%29.92 "HgN/A
6:00 AM73 °FPassing clouds.No wind94%29.89 "HgN/A
4:00 AM77 °FPassing clouds.3 mph89%29.89 "HgN/A
3:00 AM77 °FPassing clouds.6 mph89%29.89 "HgN/A
2:00 AM77 °FPassing clouds.10 mph94%29.89 "HgN/A
1:00 AM77 °FPassing clouds.10 mph89%29.92 "HgN/A
12:00 AM77 °FPartly cloudy.7 mph89%29.95 "HgN/A
11:00 PM
Oct 19
77 °FPassing clouds.5 mph83%29.95 "HgN/A
10:00 PM79 °FPassing clouds.6 mph79%29.95 "HgN/A
9:00 PM77 °FPassing clouds.No wind94%29.92 "HgN/A
8:00 PM77 °FPartly cloudy.2 mph94%29.92 "HgN/A
7:00 PM77 °FPartly cloudy.6 mph94%29.89 "HgN/A
Weather by CustomWeather, © 2014

See weather overviewHow to use our weather pages